Regional Weather Roundup
Issued by NWS Green Bay, WI

Home | Current Version | Previous Version | Graphics & Text | Print | Product List | Glossary Off
Versions: 1 2 3 4 5 6 7 8 9 10 11 12 13 14 15 16 17 18 19 20 21 22 23 24 25 26 27 28 29 30 31 32 33 34 35 36 37 38 39 40 41 42 43 44 45 46 47 48 49 50

000
ASUS43 KGRB 040111
RWRGRB

NORTH-CENTRAL AND NORTHEAST WISCONSIN REGIONAL WEATHER ROUNDUP
NATIONAL WEATHER SERVICE GREEN BAY WI
700 PM CST SAT DEC 03 2016

WIZ005-009-010>012-018-019-040200-
NORTH CENTRAL WISCONSIN

CITY           SKY/WX    TMP DP  RH WIND       PRES   REMARKS
IRONWOOD       CLOUDY    28  23  81 S3        30.21F
MANITOWISH WTR CLOUDY    27  24  87 S7        30.19F
ARBOR VITAE    CLOUDY    29  23  78 S3        30.20F
EAGLE RIVER    CLOUDY    27  19  72 CALM      30.20F
LAND O LAKES   CLOUDY    28  22  76 CALM      30.21F
RHINELANDER    CLOUDY    28  20  71 S7        30.22S
PHILLIPS       CLOUDY    28  22  79 S5        30.21R
ANTIGO         CLOUDY    26  21  79 W6        30.22F
TOMAHAWK       CLOUDY    28  19  71 SW3       30.23S
MERRILL        CLOUDY    29  23  78 SW3       30.24S
$$

WIZ013-073-040200-
NORTHEAST WISCONSIN

CITY           SKY/WX    TMP DP  RH WIND       PRES   REMARKS
IRON MOUNTAIN  CLOUDY    31  26  82 CALM      30.21F
MARINETTE      CLOUDY    32  23  69 SW6       30.28S
OCONTO         CLOUDY    31  21  65 CALM      30.28S
$$

WIZ017-030-035>037-045-040200-
CENTRAL WISCONSIN

CITY           SKY/WX    TMP DP  RH WIND       PRES   REMARKS
MEDFORD        CLOUDY    28  21  76 S7        30.21F
WAUSAU         CLOUDY    29  21  72 W5        30.23F
MOSINEE        CLOUDY    28  23  80 S6        30.25F
MARSHFIELD     CLOUDY    28  21  75 CALM      30.23F
WISC RAPIDS    CLOUDY    30  22  72 CALM      30.26F
STEVENS POINT  CLOUDY    28  20  72 SW3       30.25F
WAUPACA        CLOUDY    32  23  69 CALM      30.27S
SHAWANO        CLOUDY    32  24  70 CALM      30.27F
CLINTONVILLE   CLOUDY    32  23  69 SW3       30.26F
WAUTOMA        CLOUDY    29  23  78 CALM      30.27F
$$

WIZ038-039-048-051-040200-
FOX VALLEY

CITY           SKY/WX    TMP DP  RH WIND       PRES   REMARKS
NWS GREEN BAY  CLOUDY    33  25  72 CALM      30.27F
APPLETON       CLOUDY    30  21  69 VRB3      30.25F
OSHKOSH        CLOUDY    30  21  69 W3        30.26F
FOND DU LAC    CLOUDY    30  20  66 NW3       30.27F
$$

WIZ022-050-052-040200-
EAST CENTRAL WISCONSIN

CITY           SKY/WX    TMP DP  RH WIND       PRES   REMARKS
EPHRAIM        CLOUDY    32  26  78 SW3       30.24F
WASHINGTON ISL CLOUDY    34  29  82 SW8       30.25S
STURGEON BAY   CLOUDY    31  24  75 SW12      30.28S
MANITOWOC      CLOUDY    32  23  69 SW3       30.28F
SHEBOYGAN      CLOUDY    30  22  72 SW3       30.29S
$$

LMZ563-521-522-541>543-040200-
LAKESHORE

STATION/POSITION TIME  TEMP    WIND        PRES    VSBY  WAVE
                       AIR SEA DIR/SP/G                  HT/PER
                 (UTC) (F)     (DEG/KT/KT) (MB)    (MI)  (FT/S)
SHEBOYGAN LKSHOR 0000   32     240/  6/  7 1026.4F
KEWAUNEE LKSHORE 0042   32     300/  3/  4 1024.9F
NORTHPORT PIER   0040   34     220/  4/ 11 1024.4F
SISTER BAY LKSHO 0023   34     200/  9/ 11   N/A
CHAMBERS ISLAND  0040   34     170/  4/  9 1024.0F
MENOMINEE LKSHOR 0042   33     210/  7/  8 1024.0F
$$



USA.gov is the U.S. government's official web portal to all federal, state and local government web resources and services.